Location: Hardenberg
(52.5670°N, 6.6170°E)
Time: 05:05:52
(UTC+02:00)

ISS - Visible Passes

Search period start: 28 July 2021 00:00
Search period end: 07 August 2021 00:00
Orbit: 419 x 421 km, 51.6° (Epoch: 28 July)

Date Brightness Start Highest point End Pass type
(mag) Time Alt. Az. Time Alt. Az. Time Alt. Az.
28 Jul -2.7 22:22:31 10° W 22:25:37 33° SSW 22:28:41 10° SE visible
29 Jul -1.4 23:13:04 10° WSW 23:14:38 13° SW 23:16:01 11° SSW visible
30 Jul -1.7 22:25:15 10° W 22:27:37 18° SW 22:29:59 10° S visible
